Regional Weather Roundup
Issued by NWS State College, PA

Home | Current Version | Previous Version | Text Only | Print | Product List | Glossary On
Versions: 1 2 3 4 5 6 7 8 9 10 11 12 13 14 15 16 17 18 19 20 21 22 23 24 25 26 27 28 29 30 31 32 33 34 35 36 37 38 39 40 41 42 43 44 45 46 47 48 49 50
000
ASUS41 KCTP 250310
RWRCTP

REGIONAL WEATHER ROUNDUP
NATIONAL WEATHER SERVICE STATE COLLEGE PA
1000 PM EST FRI FEB 24 2017

Note: "fair" indicates few or no clouds below 12,000 feet with no
significant weather and/or obstructions to visibility.

* = STATION THAT DOES NOT REPORT PRECIPITATION /E.G. RAIN...SNOW...ETC/
    THUNDER OR FOG.

PAZ002>004-007>009-013>016-020>023-029>032-250400-
WESTERN PENNSYLVANIA

CITY           SKY/WX    TMP DP  RH WIND       PRES   REMARKS
ERIE           CLOUDY    68  49  50 S9        29.52F
MEADVILLE      CLOUDY    64  47  53 VRB3      29.57F
FRANKLIN*      CLOUDY    63  46  55 S12       29.61F
NEW CASTLE     FAIR      58  49  72 CALM      29.58F
BEAVER COUNTY  NOT AVBL
BUTLER*        CLEAR     64  46  52 SE6       29.61S
PITTSBURGH INT PTCLDY    61  47  59 SE5       29.60S
PITTSBURGH     CLEAR     65  44  46 S8        29.61S
INDIANA*       CLEAR     66  50  55 S12G17    29.67S
LATROBE        CLEAR     66  48  52 S17G29    29.64S
WASHINGTON CO* CLEAR     55  45  67 S5        29.63F
$$

PAZ004>006-010>012-017>019-024>028-033>037-041-042-045-046-049>053-250400-
CENTRAL PENNSYLVANIA

CITY           SKY/WX    TMP DP  RH WIND       PRES   REMARKS
BRADFORD       CLEAR     61  49  64 S8        29.66F
DUBOIS         PTCLDY    64  48  56 SE10G22   29.64F
CLEARFIELD       N/A    N/A N/A N/A MISG      29.69F
JOHNSTOWN      CLOUDY    61  48  62 S15       29.70S
ALTOONA        CLEAR     64  50  60 S15       29.71F
STATE COLLEGE  NOT AVBL
WILLIAMSPORT   CLOUDY    65  52  62 S20G38    29.71S
SELINSGROVE    PTCLDY    63  53  70 S9        29.75S
FT INDIANTOWN  CLOUDY    63  59  87 S7        29.79S
CAPITAL CITY   CLOUDY    65  54  67 SE10      29.77S
HARRISBURG     PTCLDY    61  55  81 SE10      29.77S
YORK           MOCLDY    61  57  87 S9G17     29.78F
$$

PAZ038>040-043-044-047-048-054-055-060>062-067>071-250400-
EASTERN PENNSYLVANIA

CITY           SKY/WX    TMP DP  RH WIND       PRES   REMARKS
SCRANTON       CLOUDY    63  52  67 S8G17     29.78S
MOUNT POCONO   MOCLDY    56  53  90 S12       29.82F
ALLENTOWN      CLEAR     63  54  72 S10G21    29.82S
QUAKERTOWN*    CLEAR     61  57  88 S6        29.84S
READING        PTCLDY    62  55  77 S10       29.80F
LANCASTER      CLOUDY    64  58  80 S9        29.80F
COATESVILLE    CLOUDY    59  55  88 S6        29.85S
POTTSTOWN      MOCLDY    60  55  83 S5        29.85S
BLUE BELL      CLOUDY    61  57  88 S8        29.83F
DOYLESTOWN     CLOUDY    62  59  90 S6        29.83F
WILLOW GROVE   NOT AVBL
NORTH PHILA    MOCLDY    63  59  87 S6        29.86S
PHILADELPHIA   PTCLDY    60  56  86 S9        29.85R
$$



USA.gov is the U.S. government's official web portal to all federal, state and local government web resources and services.